CORREDORES DEL ISTMO

                                  Relevos Paseo de las Banderas – Amador – Septiembre 29, 2003

                                                                 Temperatura: 81-89°F (27-32°C)  Humedad: 71-95% 

                                                                     

 
  
POSICIÓN LLEGADA   Nombre  
  Equipo # Tiempo Equipo Categoría
1 566 1:27:02 NEW BALANCE UTP 1 A-MASC
2 589 1:29:43 CES-POLICIA NACIONAL 2 A-MASC
3 576 1:30:27 IMPALA 1 JUV-MASC
4 619 1:31:55 ANCON 1 MASTER-MASC
5 567 1:33:37 TRIATLON B 3 A-MASC
6 587 1:36:32 UNIVERSIDAD DE PANAMA 4 A-MASC
7 621 1:39:36 LOS AMIGOS 1 G-MASTER MASC
8 598 1:40:15 LEOVIGILDO CASTILLO 5 A-MASC
9 591 1:41:40 CES-JUSTO AROSEMENA 1A-MIXTA
10 618 1:44:10 JOSE SANTANA 6 A-MASC
11 592 1:44:57 CES-CENTENARIO 7A-MIXTA
12 620 1:46:30 RCN 8 A-MASC
17 602 1:48:00 LOS MASTER DEL CENTENARIO 2 MASTER-MASC
13 617 1:50:18 CANTON 3 2 JUV-MASC
14 599 1:51:03 LOS ANDINOS 3 JUV-MASC
15 596 1:51:16 ARI 9 A-MIXTA
16 575 1:51:39 TABASARA 10 A-MIXTA
21 564 1:51:44 FIESTA CASINOS 3 MASTER-MASC
18 595 1:52:52 LAS MAGNIFICAS 1 A-FEM
19 577 1:53:22 IMPALA 1 JUV-FEM
20 600 1:54:10 UNION DE AMOR 1 SILLA RUEDAS
59 622 1:55:44 MANUEL CAMAÑO 4 MASTER-MASC
22 616 1:57:11 CANTON 2 4 JUV-MASC
23 578 1:57:21 INST. CELESTIN FREINET 5 JUV-MASC
24 583 2:00:40 OPTICA LOPEZ 6 JUV-MASC
25 586 2:00:59 MATRIX-HASH 11 A-MIXTA
26 605 2:01:33 JOCV 12 A-MIXTA
27 584 2:01:55 LAST MINUTE 13 A-MIXTA
28 565 2:03:49 CONEJO PINTAO 14 A-MIXTA
29 590 2:04:23 CES LADIES 2 A-FEM
30 601 2:04:42 REXONA NO TE ABANDONA 9 A-MASC
31 607 2:04:45 OVER 40 HASH 5 MASTER-MASC
32 572 2:05:17 PIKATITS 15 A-MASC
34 594 2:06:14 ESCUELA NAUTICA 16 A-MASC
33 615 2:06:14 CANTON 1 7 JUV-MASC
35 603 2:06:38 LOS MASTER ANDINOS 2 G-MASTER MASC
36 581 2:06:59 LOS PEPE TRUENO 15 A-MIXTA
37 568 2:07:44 NESTLE PURINA PET CARE 16 A-MIXTA
38 571 2:09:12 THE OXFORD SCHOOL 8 JUV-MASC
39 573 2:11:19 RACING SCOUTS 39 9 JUV-MASC
40 604 2:11:23 ESTRELLA JAPONESA 17 A-MIXTA
41 585 2:13:04 LOS DOS SIETE OCHO 3 G-MASTER MASC
42 611 2:13:23 SI PODEMOS 3 6 MASTER-MASC
43 574 2:13:57 S.O.S. 17 A-MASC
44 593 2:14:22 APULI 18 A-MIXTA
45 580 2:14:46 EMERGENCIA 5 1 MASTER-MIXTA
46 613 2:15:53 FOX HOLE TEAM HHH 19 A-MASC
47 606 2:18:18 OVER FIFTY HASH 4 G-MASTER MASC
48 570 2:18:42 RUNNER FIT 19 A-MIXTA
49 582 2:18:45 LOS CASI BUENOS 20 A-MIXTA
50 588 2:19:32 GENERATION X 21 A-MIXTA
51 579 2:23:48 REVELACION 1 JUV-MIXTA
52 614 2:25:40 FAST AND FURIOUS 21 A-MIXTA
53 597 2:26:38 LOS FAMOSOS 22 A-MIXTA
54 609 2:28:47 SI PODEMOS 1 5 MASTER-MASC
55 610 2:32:30 SI PODEMOS 2 2 MASTER-MIXTA
56 612 2:36:46 HASH FEMENINO 3 A-FEM
57 608 2:36:55 LAS SUPERSONICAS 1 G-MASTER FEM
58 569 2:41:18 NESTLE CHERRIOS 23 A-MIXTA

                                                                

  Escribanos